Regional Weather Roundup
Issued by NWS Sterling, VA

Home | Current Version | Previous Version | Text Only | Print | Product List | Glossary Off
Versions: 1 2 3 4 5 6 7 8 9 10 11 12 13 14 15 16 17 18 19 20 21 22 23 24 25 26 27 28 29 30 31 32 33 34 35 36 37 38 39 40 41 42 43 44 45 46 47 48 49 50

000
ASUS41 KLWX 250310
RWRLWX

REGIONAL WEATHER ROUNDUP
NATIONAL WEATHER SERVICE BALTIMORE MD/WASHINGTON DC
1000 PM EST WED DEC 24 2014

Note: "FAIR" indicates few or no clouds below 12,000 feet
with no significant weather and/or obstructions to visibility.
 TC=TEMPERATURE CELSIUS

 * =Non NWS site. Station does not report precipitation (e.g. rain,
    snow, etc.), thunder, or fog.

DCZ001-MDZ009-015-VAZ040>042-051-053>054-250400-
WASHINGTON METRO

CITY           SKY/WX    TMP DP  RH WIND       PRES   REMARKS
WASHINGTON NAT CLOUDY    57  54  88 S3        29.57S FOG
DULLES         DRZL/FOG  52  52 100 S9        29.56S VSB 1/4
FT BELVOIR     FOG       52  51  97 NW3       29.57F VSB 1/2
QUANTICO       FOG       52  50  93 CALM      29.57F VSB 1/2
COLLEGE PARK*  CLOUDY    52  52 100 CALM      29.56F
LEESBURG*      CLOUDY    54  54 100 S12       29.55S FOG
MANASSAS*      CLOUDY    54  52  94 S5        29.57S
GAITHERSBURG*  CLOUDY    54  52  94 S6        29.58F VSB 1

$$

MDZ006>007-011-014-250400-
BALTIMORE METRO

CITY           SKY/WX    TMP DP  RH WIND       PRES   REMARKS
BWI AIRPORT    CLOUDY    57  56  96 S6        29.55F FOG
MD SCIENCE CTR   N/A     49  49 100 MISG      29.56F
MARTIN STATE   FOG       52  52 100 SE7       29.58F VSB 1/2
ANNAPOLIS      FOG       54  53  97 S10       29.57F VSB 3/4
FORT MEADE*    CLOUDY    55  54  94 S6        29.58F

$$

MDZ012-015-019>023-250400-
MARYLAND EASTERN SHORE

CITY           SKY/WX    TMP DP  RH WIND       PRES   REMARKS
OCEAN CITY     FOG       57  57 100 SW16G24   29.65F VSB 1
SALISBURY      CLOUDY    69  63  81 S16G22    29.61F
BAY BRIDGE AP* FOG       55  55 100 S8        29.58F VSB 3/4
CAMBRIDGE*     CLOUDY    61  59  94 S9        29.60S
EASTON*        CLOUDY    63  63 100 S13       29.62

$$

MDZ017>025-250400-
SOUTHERN MARYLAND

CITY           SKY/WX    TMP DP  RH WIND       PRES   REMARKS
PATUXENT RIVER CLOUDY    62  61  96 S9        29.58F
ST INIGOES     LGT RAIN  60  56  86 SE7       29.59F
LEONARDTOWN*   CLOUDY    63  61  94 S6        29.60S

$$

MDZ003>005-250400-
NORTH CENTRAL MARYLAND

CITY           SKY/WX    TMP DP  RH WIND       PRES   REMARKS
FREDERICK*     CLOUDY    54  50  87 S8        29.57R FOG
HAGERSTOWN APT CLOUDY    51  49  92 S7        29.50S
WESTMINSTER*   FOG       54  52  94 S12G18    29.53F VSB 1

$$

MDZ501>502-250400-
WESTERN MARYLAND

CITY           SKY/WX    TMP DP  RH WIND       PRES   REMARKS
OAKLAND*       CLOUDY    45 N/A N/A W20G31    29.56R HAZE
CUMBERLAND*    CLOUDY    43  43 100 SW3       29.55R VSB 1/2

$$

VAZ025>031-250400-
SHENANDOAH VALLEY

CITY           SKY/WX    TMP DP  RH WIND       PRES   REMARKS
WINCHESTER*    CLOUDY    46  43  87 CALM      29.52R FOG
FRONT ROYAL*   CLOUDY    48  46  93 CALM      29.51S
LURAY*         MOCLDY    61  59  94 SW13G21   29.52F
NEW MARKET*    FAIR      58  54  86 S15G25    29.52F
STAUNTON*      CLOUDY    58  54  84 SW13G23   29.57S
WAYNESBORO*    CLOUDY    58  54  85 SW10      29.57S

$$

WVZ021-048>050-054>055-250400-
EASTERN WEST VIRGINIA PANHANDLE

CITY           SKY/WX    TMP DP  RH WIND       PRES   REMARKS
MARTINSBURG    CLOUDY    47  44  90 CALM      29.51F FOG
PETERSBURG*    CLOUDY    42  42 100 CALM      29.55R FOG

$$

VAZ036>039-050-250400-
CENTRAL FOOTHILLS

CITY           SKY/WX    TMP DP  RH WIND       PRES   REMARKS
CHARLOTTESVILL CLOUDY    53  52  96 S9        29.57S
CULPEPER*      DRIZZLE   55  54  94 SW10      29.58S
ORANGE*        CLOUDY    54  52  94 S8        29.60S
GORDONSVILLE*  CLOUDY    51  51  99 SW7       29.58F
WARRENTON*     DRIZZLE   53  53 100 SW3       29.58R

$$

VAZ055>057-250400-
NORTH AND CENTRAL PIEDMONT

CITY           SKY/WX    TMP DP  RH WIND       PRES   REMARKS
FREDERICKSBRG* CLOUDY    61  61 100 S13       29.56F
STAFFORD*      CLOUDY    58  58 100 S6        29.60F

$$

NCZ024-NYZ072-PAZ021-071-VAZ022-071-250400-
OTHER REGIONAL OBSERVATIONS

CITY           SKY/WX    TMP DP  RH WIND       PRES   REMARKS
NEW YORK CITY  CLOUDY    56  56 100 S3        29.60R FOG
PHILADELPHIA   CLOUDY    62  59  90 SW17      29.57F
PITTSBURGH     LGT RAIN  47  41  80 W17G38    29.49R
ROANOKE        CLOUDY    49  48  97 S5        29.63S
RICHMOND       CLOUDY    65  62  90 S13       29.61S
RALEIGH        CLOUDY    65  60  84 SW10      29.67F

$$

ANZ530>537-250400-
MARINE OBSERVATIONS

STATION/POSITION TIME  TEMP    WIND        PRES
                       AIR SEA DIR/SP/G
                 (UTC) (F)     (DEG/KT/KT) (MB)
THOMAS PT LIGHT  0300   48 42  170/  9/  9 1002.6F
BALT KEY BRIDGE  0300   53     120/  7/  9 1000.7F
COVE POINT       0300   47     180/ 14/ 14 1001.8F
LEWISETTA        0300   64 43  210/ 16/ 19 1001.8F
SOLOMONS ISLAND  0300      43                N/A
PINEY POINT      0300          200/ 11/ 12   N/A

$$



USA.gov is the U.S. government's official web portal to all federal, state and local government web resources and services.